Back to catalog

STARLINK-31734

AliveCommunicationsVLEO
NORAD 59534·PAYLOAD·🇺🇸 United States

Launched Apr 18, 2024 from Cape Canaveral Space Force Station

Loading…

Next Passes (next 24 hours)

TLE

FreshSource: CelesTrak SupGP

Epoch: Sep 14, 2026, 22:38 UTC

1 59534C 24074A   26257.94354167 -.00019065  00000+0 -69067-3 0  2574
2 59534  43.0025 343.8259 0001505 276.5236 102.4315 15.27580902    14

Track STARLINK-31734 in real time with AllMySat

Download on the App Store